Theta_e
306 307 308 309 309 308 307 307 305 309 310 311 313 315 317 316 315 316 314 313 313 312 313 313 314 315 314 317 317 316 315 313 311 312 313 312 313 312 314 313 314 314 313 313 314 313 312
308 306 305 307 308 308 308 308 307 308 310 310 312 314 316 316 315 314 315 313 312 312 312 312 314 314 314 317 315 313 310 309 310 313 314 313 312 312 314 314 314 313 314 314 313 313 312
307 307 305 305 308 308 307 307 305 305 307 310 311 313 315 316 315 315 314 314 313 312 311 312 314 314 314 315 313 311 309 311 312 313 312 313 314 312 313 314 313 314 315 313 313 313 313
306 306 307 305 305 306 306 306 305 306 307 308 312 311 314 315 314 315 313 312 312 311 311 313 315 314 314 313 312 309 309 311 312 313 314 314 314 313 314 313 313 314 314 315 314 312 312
305 306 306 306 305 306 307 307 306 304 305 306 306 308 311 316 314 315 314 312 312 311 312 315 314 314 314 311 310 310 310 310 311 313 313 314 314 312 313 314 314 314 314 316 317 312 313
305 305 306 305 305 306 306 307 307 306 304 304 306 306 310 315 315 315 314 312 311 311 315 314 315 317 311 310 310 310 311 311 311 311 312 313 310 312 310 311 316 315 317 316 318 316 314
305 305 305 306 305 305 306 306 307 307 305 305 307 307 307 312 316 315 314 311 313 313 315 314 315 313 310 310 311 310 311 312 312 310 309 314 312 312 312 311 315 314 317 318 316 315 315
305 304 305 306 305 305 305 306 306 307 306 305 306 306 306 307 316 315 314 312 312 311 315 315 315 314 310 310 311 310 312 312 311 310 312 313 311 309 311 311 314 315 316 317 314 314 315
304 304 304 305 305 305 305 305 305 306 306 306 306 306 305 306 316 315 313 311 315 315 312 312 315 315 312 310 311 311 310 310 310 312 312 312 311 309 314 314 314 314 313 315 316 314 313
305 305 304 305 305 304 304 304 305 305 306 305 305 306 305 304 313 315 313 311 313 311 308 307 317 315 313 312 314 312 311 311 312 311 313 314 313 313 312 315 314 316 313 314 315 313 310
304 304 304 305 305 304 304 304 304 304 305 305 304 305 306 304 304 314 313 311 311 308 309 307 315 312 312 312 312 313 311 313 313 312 314 314 315 314 315 314 313 316 313 314 313 312 314
303 302 303 304 305 305 304 304 304 304 305 305 304 304 306 303 304 312 312 311 310 310 309 307 312 315 314 311 313 311 312 312 311 312 312 313 312 313 313 311 312 312 313 311 309 308 311
303 303 303 303 302 303 304 304 304 303 304 305 304 303 304 305 305 310 312 311 314 314 306 311 310 314 315 313 314 313 314 313 314 315 314 315 314 312 311 313 313 312 310 310 309 307 311
302 303 303 303 302 303 303 303 302 301 301 303 302 302 303 305 303 305 311 313 315 310 306 309 311 315 315 313 314 313 313 314 312 310 312 315 316 313 311 313 315 311 309 309 305 311 311
302 302 301 301 301 303 303 302 303 302 303 302 301 301 302 303 303 304 311 315 312 308 308 311 312 316 313 312 313 313 313 314 313 309 312 314 311 311 311 311 312 314 313 308 310 311 312
302 302 302 300 300 300 300 303 303 303 302 301 301 300 300 301 303 306 312 313 309 307 309 310 311 311 312 313 314 313 313 311 313 310 311 311 314 311 310 311 310 312 311 314 312 315 319
301 302 302 302 300 301 301 302 302 302 302 301 301 302 302 303 304 306 312 312 309 309 309 309 308 308 309 313 312 313 313 310 312 311 311 311 312 312 311 312 313 312 314 313 312 311 311
299 300 301 301 302 302 302 301 300 301 300 300 301 303 303 305 308 308 310 310 309 309 309 311 307 307 309 310 313 312 313 311 311 310 313 311 310 312 312 310 309 311 312 312 313 314 308
299 299 299 301 301 302 302 302 300 301 301 299 298 300 300 302 309 308 309 310 309 309 309 312 313 311 309 311 313 312 311 311 312 310 312 310 311 312 313 311 309 312 311 312 310 311 312
299 300 299 299 301 301 302 301 301 301 301 300 296 299 303 302 303 309 311 311 309 309 310 311 311 313 311 310 311 313 314 311 311 313 314 312 311 312 312 313 311 313 312 311 312 311 311
298 298 299 299 298 301 300 300 301 301 301 300 295 300 297 303 304 308 310 310 309 309 309 310 312 312 313 313 316 315 312 311 310 311 312 313 315 313 314 311 311 311 312 313 313 313 313
296 297 298 299 298 298 299 300 301 301 301 300 298 299 298 300 300 306 309 308 311 306 307 306 305 306 306 311 312 313 311 312 313 311 312 310 312 309 312 313 313 313 311 311 312 310 312
295 296 297 298 298 299 298 298 299 301 301 299 297 298 297 302 303 306 308 309 308 308 305 306 307 307 308 307 306 305 305 306 308 311 309 308 308 309 312 309 307 309 310 310 311 310 311
294 295 296 297 297 298 299 298 298 300 301 301 298 298 300 303 304 305 306 308 308 308 308 306 306 309 305 303 303 304 304 305 305 305 306 309 309 307 308 307 313 306 301 303 307 301 301
293 294 295 295 296 297 297 298 298 300 300 300 299 299 299 303 303 304 303 307 308 308 304 306 304 304 303 304 307 309 307 310 306 305 306 306 308 309 314 311 307 302 302 303 308 304 297
293 294 294 295 296 296 297 298 298 300 299 299 299 298 299 300 302 300 303 303 306 303 302 303 302 302 302 305 308 311 312 310 308 306 303 305 304 310 308 313 309 303 300 301 302 308 296
294 295 296 295 295 296 296 297 298 299 299 299 298 298 299 299 299 299 303 303 301 303 302 302 301 302 301 305 307 309 308 305 308 307 305 306 305 310 305 307 303 300 298 300 308 305 298
293 295 296 296 296 297 297 297 298 298 299 298 297 297 298 297 297 295 296 300 302 302 303 300 302 301 301 303 304 304 304 302 302 300 303 305 306 307 305 305 310 298 299 303 299 295 297
292 294 295 296 297 297 297 298 298 299 299 298 296 296 297 296 296 294 294 293 294 297 301 299 300 301 302 299 300 299 299 297 300 302 299 304 303 305 304 304 299 297 298 296 295 294 292
Wind_Speed
23 19 19 19 16 15 13 16 21 19 18 16 15 16 17 16 18 16 14 13 10 9 7 7 7 2 2 2 7 6 11 11 9 9 8 5 5 4 4 3 4 3 2 3 2 3 1
23 21 21 20 18 16 16 15 14 17 17 15 15 17 16 18 16 17 15 14 13 9 8 7 5 3 2 4 3 10 11 10 9 9 8 6 6 5 3 2 4 4 2 0 2 2 2
23 22 19 19 17 15 15 14 14 16 19 17 15 15 18 19 18 18 16 14 14 11 9 8 5 5 1 8 3 9 9 9 10 7 5 6 4 3 3 3 1 2 1 4 3 2 2
26 22 21 16 16 17 17 15 12 13 14 18 13 14 16 21 20 17 16 15 14 12 9 7 6 6 6 3 7 9 9 7 9 7 5 6 5 4 2 3 6 3 4 0 1 5 1
25 24 21 18 16 17 17 17 15 15 16 15 23 20 14 20 21 18 15 13 13 12 8 4 6 4 5 6 6 10 9 6 9 7 6 7 3 3 4 5 4 5 2 3 3 4 3
23 24 22 20 17 18 17 18 17 15 14 18 21 22 14 15 22 18 14 11 8 11 5 5 1 1 3 6 7 14 10 14 3 5 4 4 4 4 3 4 5 6 4 3 2 3 1
22 22 21 20 17 17 16 18 18 19 16 18 19 19 21 11 22 18 14 4 1 3 6 8 7 4 5 8 10 7 9 8 4 3 5 2 4 9 14 7 4 6 4 3 1 1 3
20 19 20 20 16 15 14 15 17 18 19 18 19 17 22 22 24 20 16 4 6 3 5 17 4 3 3 7 5 3 14 6 5 4 4 4 8 7 6 6 4 3 4 2 1 1 3
14 16 19 18 17 14 13 14 17 20 21 20 20 20 23 24 24 24 21 15 3 1 2 4 10 4 5 5 6 12 10 5 4 6 6 6 4 10 6 6 7 4 5 5 4 2 3
11 15 16 17 15 14 13 15 16 19 21 23 22 21 21 26 11 21 12 27 14 6 1 6 7 8 6 6 2 5 12 6 3 10 8 4 1 5 5 6 6 6 6 6 6 4 3
13 14 14 14 14 14 13 15 17 19 21 21 23 22 20 17 21 15 18 28 20 3 3 7 6 3 6 9 9 3 5 3 9 7 8 7 8 6 4 5 6 4 4 5 3 5 3
18 16 13 14 13 14 14 15 18 20 20 20 20 21 19 21 18 20 25 23 12 3 9 4 4 7 9 3 2 5 4 1 4 5 3 3 1 4 7 4 2 9 7 8 5 3 1
20 17 15 13 14 13 12 15 19 20 20 19 17 19 21 11 8 3 27 14 7 11 2 6 6 7 10 6 5 5 10 9 8 7 6 2 1 0 4 7 5 3 6 3 3 3 6
23 20 16 13 12 12 13 15 17 17 16 17 19 23 17 17 26 24 24 12 13 12 7 3 4 9 8 8 3 7 11 12 6 4 5 7 3 8 5 6 9 6 6 6 8 4 4
25 24 19 15 12 13 14 16 14 12 13 19 24 19 13 19 25 20 10 18 14 9 12 8 7 10 5 5 7 5 8 13 15 11 8 6 3 2 2 3 6 6 4 5 7 3 3
27 24 22 17 15 15 14 15 12 11 14 22 17 8 12 25 28 16 11 19 15 7 15 8 8 8 8 12 6 9 11 6 6 9 1 8 4 1 1 3 3 4 7 4 2 5 5
29 26 23 20 17 17 16 14 12 14 15 23 9 5 11 17 23 6 12 18 20 5 7 11 8 7 6 10 8 9 13 2 12 11 5 5 5 1 4 6 9 4 4 2 5 5 6
29 28 26 23 21 20 14 13 14 14 20 12 4 4 8 20 9 3 8 19 6 5 4 4 5 6 9 11 7 6 10 2 3 11 15 5 5 4 6 2 2 2 6 6 5 6 2
33 28 27 27 25 21 17 14 16 18 15 8 2 4 9 8 4 4 10 5 4 6 6 7 6 3 5 9 6 5 6 2 2 7 16 9 5 4 3 4 2 5 6 4 4 3 7
34 32 28 27 29 24 20 17 16 20 16 11 2 3 3 1 2 8 13 21 6 2 2 3 5 4 5 6 3 8 4 1 2 1 4 6 3 6 11 5 6 6 8 8 6 3 6
35 33 31 28 28 26 23 22 21 21 18 7 1 3 1 3 2 9 12 23 10 5 2 2 1 4 8 5 3 4 4 4 4 4 3 4 5 3 2 5 4 4 8 17 14 14 7
35 34 32 30 28 26 27 26 25 23 23 2 2 3 2 4 3 10 18 11 25 4 5 4 4 2 3 6 6 8 8 3 5 2 2 2 2 3 3 3 3 3 5 10 11 3 2
33 33 33 30 30 28 27 27 27 27 23 2 3 5 2 5 4 6 10 13 22 13 3 1 8 5 4 4 5 9 8 8 6 7 4 4 5 2 2 3 3 4 7 7 5 3 7
34 32 32 33 30 31 29 26 26 27 23 11 3 4 3 3 3 4 7 4 16 22 11 4 3 5 4 14 9 10 13 12 11 11 6 6 6 2 3 2 3 1 2 2 4 3 1
36 33 31 31 32 32 32 28 26 26 23 11 6 4 2 3 4 3 2 3 5 5 3 4 1 1 18 3 4 5 4 4 5 7 5 2 5 2 4 4 3 5 3 5 6 3 3
36 35 32 30 30 31 31 28 25 22 18 17 6 13 3 3 3 5 3 1 3 4 4 3 2 12 3 2 4 6 6 6 6 4 2 4 7 3 4 5 8 2 3 2 3 3 7
39 39 35 31 29 31 29 24 22 22 19 17 6 16 3 2 3 4 3 2 1 4 4 4 6 2 3 3 3 3 3 1 6 9 5 4 3 3 3 3 4 4 4 2 5 3 11
42 44 35 29 29 29 25 22 21 21 19 16 7 13 6 1 4 6 6 4 2 2 4 5 4 1 1 3 3 3 2 3 4 1 6 6 7 3 3 2 12 6 4 6 3 7 11
41 39 39 36 31 30 24 22 23 18 14 14 5 16 6 3 2 4 3 13 8 5 3 2 2 2 3 4 2 3 2 2 5 3 3 2 3 5 3 1 3 4 3 4 4 9 5
Wind_Direction
298 303 308 299 290 303 308 306 314 311 310 307 296 280 262 263 271 271 270 268 267 275 283 305 314 258 178 208 248 173 164 177 181 172 175 149 144 146 178 176 122 182 215 180 134 141 195
295 294 290 301 294 292 302 304 306 302 300 302 298 281 267 259 263 265 270 271 270 269 280 289 291 241 200 223 179 172 165 166 174 170 162 153 177 180 145 186 157 188 183 256 192 202 206
292 292 289 287 299 285 288 296 301 300 298 299 287 280 266 253 255 260 258 267 269 268 273 285 246 191 189 237 184 175 176 165 169 174 148 166 141 119 132 134 150 104 331 328 209 206 239
286 282 286 289 289 290 283 291 286 295 286 304 314 283 270 249 253 251 253 259 268 270 271 277 206 171 230 212 184 180 168 148 158 149 131 146 134 109 95 124 25 78 54 81 283 139 345
285 279 275 279 288 285 279 274 284 282 299 298 313 315 273 245 242 246 248 254 265 276 271 202 177 185 250 158 180 192 182 163 144 135 108 124 106 100 60 93 26 12 209 211 319 199 116
279 278 272 271 278 285 280 276 278 279 300 309 300 303 295 246 233 238 239 247 262 270 228 156 168 144 183 214 164 168 173 152 130 120 72 77 57 95 54 119 201 194 204 232 237 203 102
276 276 271 269 272 281 281 279 286 289 288 295 286 300 299 279 223 224 229 198 78 270 232 195 189 205 134 126 126 159 156 135 96 75 152 158 123 190 199 167 139 138 152 145 193 90 154
274 275 274 270 267 273 280 276 283 288 292 291 283 301 300 332 213 211 212 203 201 195 224 242 293 304 155 162 109 162 160 135 144 174 121 68 218 205 145 156 157 105 121 220 249 121 143
275 274 277 270 266 268 278 283 282 283 288 292 287 289 310 299 204 197 198 209 199 212 242 264 195 185 186 161 178 181 147 140 136 138 187 166 258 157 147 146 156 203 173 177 183 98 61
296 282 280 275 273 270 280 286 293 295 292 292 295 297 301 305 214 182 199 212 210 13 318 251 195 229 154 162 215 158 171 143 161 178 142 232 283 119 147 181 139 180 188 151 143 102 204
321 298 293 290 282 281 284 290 294 293 298 299 302 303 294 312 308 187 200 203 214 305 223 217 172 128 146 166 142 226 182 76 159 165 133 230 166 156 152 216 160 195 104 121 97 102 81
347 329 303 302 289 283 285 292 299 298 302 300 303 301 301 313 295 213 194 181 149 138 232 170 133 151 135 157 85 117 137 51 141 119 70 147 142 163 181 67 59 151 79 53 56 89 23
350 341 328 316 302 290 298 301 300 299 297 301 304 309 308 277 273 244 182 141 167 209 153 193 176 163 161 147 124 155 165 176 162 135 176 79 140 256 134 84 35 88 90 20 1 1 217
358 350 338 326 318 313 308 308 314 307 301 312 315 307 298 277 270 268 188 178 194 198 200 140 127 129 169 143 185 166 149 189 252 106 123 152 233 177 183 172 172 175 151 154 195 198 225
357 355 350 339 327 321 315 313 319 316 317 321 314 309 267 271 269 256 203 195 191 172 172 135 80 152 177 194 131 141 194 197 196 180 155 151 253 56 109 137 140 189 186 168 105 35 55
4 360 357 356 348 340 331 323 317 314 316 327 310 256 252 273 253 238 202 197 204 178 147 147 153 165 177 177 137 169 169 190 198 178 191 191 115 344 152 113 30 150 163 79 38 142 240
5 5 4 1 350 343 337 333 326 320 319 317 296 299 282 259 201 217 200 199 200 202 138 163 160 151 183 176 162 188 193 193 191 179 145 141 103 313 118 214 171 149 175 103 123 150 169
3 7 7 2 355 349 345 339 338 332 327 350 289 284 247 184 195 211 183 193 155 195 194 177 131 124 170 161 158 194 190 260 183 152 188 173 111 154 191 268 234 155 168 156 146 207 225
5 5 5 1 355 348 341 330 332 336 336 297 243 257 274 204 228 184 199 169 132 153 194 156 171 173 170 157 142 171 170 91 175 172 164 178 183 103 30 0 353 200 198 161 108 94 186
3 3 4 2 360 358 349 333 327 329 330 325 282 281 240 242 207 190 179 192 120 50 160 141 140 114 120 148 32 157 127 80 3 122 90 109 136 178 202 186 138 189 186 185 167 147 162
360 0 3 3 2 2 360 358 346 337 333 309 265 274 38 311 248 192 183 186 164 143 7 7 3 190 151 130 110 119 110 130 58 351 49 130 148 122 108 142 138 173 185 190 199 205 186
354 359 359 3 2 357 356 354 349 345 343 234 280 301 307 271 287 216 178 177 191 175 134 245 137 69 9 141 172 178 131 158 169 81 90 67 153 118 47 69 136 188 184 195 218 147 191
354 351 356 356 359 358 354 349 348 348 351 284 292 273 281 300 319 207 188 173 198 168 203 90 149 116 84 140 125 96 88 76 100 139 124 97 127 96 217 15 42 321 196 173 165 143 191
355 352 347 354 355 353 352 348 345 345 347 318 235 266 270 288 319 324 175 147 175 195 187 105 86 113 134 136 119 70 67 73 61 41 45 133 117 80 131 58 223 324 18 345 114 70 138
354 351 351 345 348 346 349 348 345 344 352 339 344 328 303 306 311 329 300 104 84 137 73 111 155 243 150 131 66 61 14 20 35 55 42 357 114 90 162 202 328 329 188 163 171 220 167
352 350 345 345 344 341 345 345 345 348 354 350 323 354 285 297 29 312 339 290 139 123 108 103 72 126 83 111 131 169 174 153 193 142 10 76 71 144 144 181 212 158 187 159 141 271 157
353 349 342 342 341 338 339 341 343 348 348 348 319 352 307 300 6 326 18 29 67 102 104 122 135 161 323 128 124 141 164 306 161 162 157 106 78 171 189 215 287 187 177 198 136 216 138
354 357 4 355 349 348 349 347 344 343 345 354 316 359 351 338 12 357 360 17 57 51 143 145 119 137 116 97 119 144 115 195 86 74 156 149 153 163 106 122 247 146 89 161 177 94 134
356 356 0 359 5 -0 1 355 353 349 2 353 336 342 7 54 358 310 52 37 358 332 85 47 51 110 143 111 120 100 118 132 143 167 4 156 128 151 172 194 59 77 76 52 131 134 132